Location: Praha
(50.0830°N, 14.4670°E)
Time: 13:59:48
(UTC+02:00)

ISS - Pass Details

Date: 21 September 2021
Orbit: 419 x 423 km, 51.6° (Epoch: 21 September)

Event Time Altitude Azimuth Distance (km) Brightness Sun altitude
Rises 20:07:06 0° 244° (WSW) 2,359 0.9 -11.1°
Reaches altitude 10° 20:09:12 10° 242° (WSW) 1,498 -0.2 -11.5°
Maximum altitude 20:12:32 69° 159° (SSE) 453 -3.8 -12.0°
Enters shadow 20:14:52 19° 78° (ENE) 1,089 -2.2 -12.3°
